Vorticity
nan nan nan nan nan nan nan nan nan nan nan nan nan nan nan nan nan nan nan nan nan nan nan nan nan nan nan nan nan nan nan nan nan nan nan nan nan nan nan nan nan nan nan nan nan nan nan nan nan nan nan nan nan nan nan nan nan nan nan nan nan nan nan nan nan nan nan nan nan nan nan nan nan nan nan nan nan nan nan nan nan nan nan nan nan nan
nan 10 13 14 10 6 11 14 12 9 8 8 9 9 9 9 11 15 19 18 15 11 10 12 13 13 12 17 21 20 18 17 15 13 12 11 11 11 12 13 14 14 14 14 13 12 11 10 11 12 14 13 12 9 8 9 10 11 12 12 12 11 10 9 9 8 8 7 7 6 6 7 8 8 9 9 9 9 8 8 8 9 9 9 10 nan
nan 11 12 15 13 9 8 12 13 13 12 11 9 7 4 7 8 10 13 16 17 15 13 12 13 15 15 15 19 20 18 17 16 15 14 12 12 13 13 14 13 13 13 14 14 13 13 12 12 12 14 14 13 10 9 10 11 12 13 12 12 10 9 9 8 8 7 7 7 7 7 8 9 9 10 10 9 9 8 8 9 9 9 9 10 nan
nan 10 11 14 15 12 8 9 11 14 17 14 12 9 8 10 11 11 11 12 13 14 15 14 12 12 15 16 19 20 18 16 16 15 14 14 14 14 13 11 10 10 11 12 13 14 14 13 12 12 14 15 14 13 12 13 13 13 12 11 10 9 9 8 8 8 8 8 8 8 8 9 9 10 10 10 9 9 8 8 9 9 9 10 10 nan
nan 9 10 11 12 13 12 12 12 13 14 14 14 14 14 13 12 12 12 12 12 13 16 17 15 12 11 14 16 18 18 16 15 15 15 14 15 14 12 8 6 7 9 10 11 12 13 13 13 13 14 14 14 14 14 14 13 12 10 9 9 9 8 8 8 8 8 8 9 9 9 9 10 10 10 9 9 9 9 9 9 9 9 9 9 nan
nan 10 9 8 9 10 13 15 15 12 10 12 13 14 13 12 11 11 10 12 13 13 14 16 17 15 12 12 14 17 18 18 17 16 15 15 15 14 12 8 7 8 9 9 9 9 10 12 13 13 14 14 14 14 14 13 12 10 9 8 8 8 8 9 8 9 9 9 9 9 10 10 10 10 10 9 9 9 9 9 9 9 9 9 9 nan
nan 10 8 7 8 9 12 13 13 10 7 9 11 13 12 12 12 11 10 10 11 11 11 13 14 15 14 13 14 17 20 21 22 21 20 18 17 16 14 11 11 12 12 10 8 8 8 10 12 13 14 14 14 13 12 11 10 9 8 7 8 8 9 9 9 9 9 9 9 9 10 10 10 10 10 10 9 9 9 9 9 9 8 8 8 nan
nan 6 6 6 6 8 10 9 9 8 7 6 8 9 11 11 12 13 13 10 9 9 9 9 11 12 13 14 15 16 18 20 23 26 26 26 25 23 20 19 18 17 15 12 9 8 8 10 12 14 14 14 14 13 11 10 9 8 7 8 8 9 9 9 9 9 9 9 9 9 10 10 10 10 9 9 9 9 9 9 9 9 8 8 8 nan
nan 7 9 8 7 8 9 9 8 8 7 7 8 9 10 7 8 11 11 11 11 10 9 8 9 10 11 13 14 15 15 13 12 14 16 20 23 25 26 27 28 27 19 14 11 10 10 12 13 14 15 15 14 12 10 9 8 8 8 9 9 10 10 9 9 9 8 9 9 9 10 10 10 9 9 9 9 9 9 9 8 8 8 7 7 nan
nan 11 12 12 12 12 11 11 12 13 11 10 12 11 10 9 9 9 7 9 10 11 10 9 9 8 9 11 12 13 16 15 12 8 7 7 10 14 19 24 30 34 27 18 14 12 12 14 15 16 17 16 15 13 10 9 8 9 9 10 10 10 10 10 9 8 8 8 9 10 10 10 9 9 9 8 9 9 9 8 8 8 7 7 7 nan
nan 14 13 13 14 14 13 12 13 16 14 11 12 12 12 13 11 8 7 9 10 11 11 11 10 9 8 10 12 12 13 16 18 20 18 14 12 12 15 19 24 30 30 24 20 17 15 16 16 17 17 16 14 12 10 9 9 9 10 10 10 10 10 9 9 8 8 8 9 9 10 9 9 8 8 8 8 8 8 8 7 7 7 7 7 nan
nan 14 14 12 11 12 12 12 12 14 12 10 10 12 15 15 13 10 10 11 10 11 12 13 13 12 10 8 10 12 11 12 15 19 23 22 21 18 19 21 25 29 33 32 31 28 23 19 16 15 15 15 14 11 8 9 11 11 10 10 9 9 9 8 8 8 8 8 9 9 9 9 9 8 8 8 8 8 8 7 7 7 7 7 8 nan
nan 12 11 11 11 10 10 9 9 10 9 9 11 12 13 14 12 11 13 15 13 12 13 13 14 15 13 10 9 10 11 11 12 12 14 16 18 18 18 19 21 25 29 31 34 40 39 30 21 17 14 14 14 12 8 7 10 10 9 8 8 8 7 7 8 8 8 9 9 9 9 9 9 9 8 8 8 7 7 7 7 7 7 7 8 nan
nan 10 8 8 9 11 10 8 6 5 7 8 11 13 11 10 9 9 13 16 15 15 14 11 11 13 14 13 12 11 10 9 10 11 10 12 14 15 14 14 14 16 19 21 25 34 38 32 27 31 26 16 15 15 10 8 9 9 8 7 7 6 7 7 8 8 8 9 9 9 10 9 9 9 8 8 8 7 7 7 7 7 7 8 8 nan
nan 10 8 8 10 11 10 10 9 9 10 10 9 8 8 7 8 9 11 14 14 15 14 12 10 11 13 15 15 14 11 9 9 9 9 10 12 14 13 11 11 12 13 13 16 24 28 21 19 29 36 26 19 18 15 12 13 10 7 7 7 6 7 7 8 8 9 9 9 10 10 9 9 9 8 8 8 7 7 7 7 7 7 8 9 nan
nan 10 10 10 10 9 7 10 12 14 13 12 9 7 7 7 7 8 10 12 14 15 14 13 11 10 12 16 17 16 13 10 9 9 8 8 10 13 13 11 9 9 11 10 11 15 19 18 17 21 32 34 24 17 13 13 14 10 7 7 7 7 7 8 9 9 9 10 10 10 10 9 9 9 8 8 8 7 7 7 7 7 8 8 9 nan
nan 9 10 10 9 8 8 10 11 12 12 12 12 12 13 10 7 5 7 10 12 14 14 12 11 10 11 13 16 17 14 9 8 8 9 8 9 12 14 12 10 8 9 9 9 11 13 15 16 18 29 35 27 17 11 11 12 10 8 7 7 8 8 9 9 10 10 10 10 10 10 9 9 8 8 8 8 8 8 8 8 8 8 9 9 nan
nan 8 9 10 9 9 10 11 12 12 12 12 13 14 14 11 9 8 7 11 12 12 11 10 9 8 8 9 14 21 17 9 7 7 9 9 10 13 15 13 12 10 9 8 8 9 11 12 15 18 33 37 24 16 11 9 11 10 8 8 8 8 9 9 9 10 9 9 9 9 9 9 8 8 8 8 8 8 8 8 8 8 9 9 9 nan
nan 9 9 10 9 9 10 11 12 13 12 11 10 9 7 9 10 11 13 16 17 14 10 7 6 7 8 7 12 21 20 11 7 6 7 9 10 13 14 13 13 11 10 9 8 9 10 15 21 25 32 31 22 15 10 9 10 10 9 9 9 8 9 9 9 9 9 9 9 9 9 9 8 8 8 8 8 8 8 8 9 9 9 9 9 nan
nan 9 9 10 10 11 13 12 10 8 6 5 3 2 2 6 9 11 16 17 16 14 12 9 7 5 7 8 12 17 18 13 10 9 7 8 10 13 14 14 12 10 8 9 8 10 10 14 22 31 32 25 21 15 10 9 9 9 9 9 8 8 8 9 9 9 9 8 9 9 9 9 8 8 8 8 8 8 9 9 9 9 9 9 9 nan
nan 10 9 7 8 11 12 7 3 1 -1 -5 -4 -0 6 7 9 10 12 11 11 11 12 11 10 7 6 8 12 19 17 11 8 7 10 10 9 11 15 15 13 11 8 8 8 10 11 11 15 26 34 29 20 14 10 8 8 8 8 8 8 8 8 9 9 9 9 9 9 9 9 9 9 9 9 9 8 8 9 9 9 9 9 9 9 nan
nan 7 4 4 6 7 5 4 5 6 4 1 3 7 12 11 8 7 6 6 9 13 12 11 11 11 12 15 16 22 17 9 6 4 8 10 9 10 14 15 14 11 8 7 8 10 11 10 14 23 32 29 18 11 8 7 7 7 7 7 8 8 8 9 10 10 9 9 9 9 9 9 9 9 9 9 8 8 9 9 9 9 9 9 9 nan
nan 4 4 8 9 8 7 9 12 14 16 17 18 16 13 9 6 6 7 6 8 12 15 13 11 12 13 18 18 21 16 10 7 7 8 9 9 12 14 15 14 11 8 7 10 11 11 10 13 20 30 27 13 8 7 6 6 6 7 7 7 8 9 10 11 11 10 10 9 9 9 9 9 9 9 9 8 8 8 9 10 10 10 10 9 nan
nan 8 10 10 8 4 3 3 3 4 8 12 15 15 11 8 9 11 10 7 8 13 18 15 10 8 9 11 11 15 15 11 9 8 9 10 10 12 15 16 14 11 8 7 10 12 11 9 11 15 27 29 15 8 6 5 6 6 7 7 8 9 10 11 11 11 11 10 10 9 9 9 9 9 9 8 8 8 9 9 10 10 10 10 10 nan
nan 3 2 -3 -7 -12 -15 -17 -17 -16 -14 -7 0 5 7 10 14 15 13 15 18 19 16 13 9 7 8 7 6 9 13 13 11 8 7 10 12 12 14 16 14 12 9 8 11 11 10 9 10 11 20 27 23 14 7 6 6 7 7 8 9 10 11 11 12 11 10 10 10 9 9 9 9 8 8 8 8 9 9 10 10 11 11 10 10 nan
nan -11 -15 -17 -17 -17 -17 -17 -17 -18 -19 -15 -10 -4 2 9 13 14 13 18 20 19 14 11 8 7 8 6 6 8 12 13 12 9 8 10 11 11 12 14 14 13 11 9 11 11 10 9 9 9 14 23 26 20 11 8 7 8 8 9 10 11 11 11 11 11 10 10 9 9 9 9 9 8 8 8 9 9 10 10 11 10 11 11 13 nan
nan -3 -4 -3 -1 2 3 3 2 0 0 -4 -9 -10 -2 8 12 11 9 14 16 16 12 9 7 7 7 6 8 11 13 12 11 11 12 13 11 10 11 13 13 13 11 10 12 14 11 8 8 9 9 15 23 27 21 12 9 9 9 10 10 11 11 11 11 10 9 9 9 9 9 8 8 8 8 9 9 10 10 10 10 10 9 11 16 nan
nan 17 17 17 16 16 15 16 17 19 19 15 9 6 8 13 13 12 11 14 16 16 12 8 7 8 8 9 10 12 12 11 10 10 13 14 12 12 13 13 12 11 9 9 11 13 11 9 10 10 10 12 17 25 29 22 15 13 12 10 10 10 10 10 10 9 9 9 9 9 9 8 8 8 8 9 9 10 10 10 10 10 9 8 10 nan
nan 25 25 24 24 25 26 28 29 29 26 23 23 23 22 18 14 12 12 13 15 15 13 9 8 8 10 13 11 11 10 12 11 10 9 9 9 12 14 13 11 9 7 6 7 8 9 12 13 13 13 12 12 15 25 28 22 22 22 18 13 11 10 10 9 9 9 9 9 9 9 9 9 9 9 9 9 10 10 9 7 7 10 10 8 nan
nan 24 28 29 31 33 34 33 32 30 26 24 26 29 27 20 15 13 13 13 13 13 12 10 9 8 9 11 9 8 11 15 14 11 7 5 7 11 13 13 11 8 5 4 5 6 8 11 13 15 15 13 9 9 14 20 20 23 30 31 24 20 17 13 11 10 10 10 10 10 9 9 9 9 9 9 9 9 9 7 3 0 6 11 11 nan
nan 21 25 27 29 30 28 25 23 23 23 27 32 34 30 22 18 16 18 17 15 13 11 10 10 10 8 5 5 6 14 20 18 12 5 5 7 11 12 11 10 8 5 5 7 8 9 9 11 13 14 12 11 10 10 10 12 14 21 26 27 29 26 21 17 15 15 13 12 11 10 10 9 9 9 8 8 8 8 5 -1 -5 1 10 10 nan
nan 20 20 20 20 19 18 16 17 18 21 27 30 29 24 19 18 18 21 22 20 18 15 12 12 11 9 4 4 5 14 22 23 15 4 2 7 12 13 11 10 8 5 6 11 13 12 10 10 12 12 11 11 12 11 9 8 10 11 13 16 25 28 25 24 22 24 25 21 17 14 12 11 10 9 8 8 8 8 5 -2 -8 -3 8 11 nan
nan 16 15 14 13 13 12 13 14 16 19 20 20 19 17 16 15 16 17 19 20 21 20 18 15 14 12 9 6 6 13 23 26 19 3 -1 6 12 13 12 10 7 4 4 10 14 15 14 13 13 12 10 10 12 13 11 9 9 10 9 10 15 20 21 22 22 26 32 32 32 29 23 18 16 14 12 10 10 9 7 0 -7 -10 1 10 nan
nan 13 12 12 12 12 11 13 14 16 16 15 13 13 13 13 12 13 13 15 16 18 20 20 19 17 15 12 10 7 11 23 26 18 2 -3 6 13 14 11 10 8 4 4 7 10 12 14 15 14 12 10 9 10 12 12 11 11 12 12 10 10 12 13 14 15 17 20 24 28 32 33 31 28 25 21 18 16 14 12 8 1 -9 -8 1 nan
nan 13 13 13 13 12 12 13 14 15 14 12 11 11 11 11 11 11 11 12 13 15 16 18 20 20 18 16 13 9 12 22 24 15 2 -2 4 11 14 12 11 9 6 6 7 8 11 14 15 14 13 9 7 6 8 10 12 12 13 14 12 11 11 11 11 10 9 9 11 13 17 21 24 27 28 27 24 22 20 18 16 12 4 -5 -7 nan
nan 13 13 14 13 13 13 15 15 15 13 11 11 10 10 11 11 11 11 11 12 12 14 15 17 20 22 21 19 16 16 21 21 14 3 0 5 9 12 14 13 11 8 7 8 9 11 13 14 13 11 8 7 6 6 8 11 12 11 11 11 11 12 12 12 11 9 9 8 8 9 11 12 14 19 21 20 20 20 19 18 17 13 5 -1 nan
nan 12 13 14 14 15 16 17 16 14 12 10 10 10 10 11 10 11 11 11 12 13 12 13 15 17 23 26 25 24 23 22 20 15 7 4 7 10 12 15 15 12 9 10 9 9 10 11 11 9 8 8 9 9 9 9 9 9 8 9 9 10 11 12 12 12 11 11 10 9 9 9 9 9 13 17 18 21 22 22 20 19 17 13 9 nan
nan 12 12 12 13 14 16 16 14 12 11 10 9 9 10 10 10 11 11 12 13 15 14 12 12 11 18 26 27 28 26 22 19 14 10 8 10 12 14 15 14 12 11 13 12 10 9 10 8 6 6 8 10 12 13 12 10 6 5 7 8 9 10 11 11 10 11 12 11 11 10 9 9 9 10 14 16 18 19 21 23 25 24 23 22 nan
nan 10 10 10 12 15 17 16 14 12 10 9 9 9 9 9 10 12 12 13 13 14 15 15 13 9 11 17 19 21 21 17 14 12 9 10 12 14 14 14 12 10 11 12 13 12 10 9 10 9 8 7 8 9 13 15 13 9 7 6 6 7 10 11 11 10 11 11 11 10 8 8 10 10 9 11 12 13 12 14 17 21 21 22 27 nan
nan 10 10 11 15 17 18 17 15 12 10 9 10 11 11 10 10 11 12 12 12 11 11 12 12 10 8 9 11 13 14 15 13 12 10 12 15 16 14 13 12 10 10 10 11 12 11 10 11 12 11 11 10 10 10 12 14 13 10 6 6 6 8 12 11 11 11 12 11 9 8 9 11 11 10 9 9 10 9 10 12 14 14 13 17 nan
nan 10 11 14 17 19 19 16 13 11 10 11 11 12 12 11 10 10 11 10 10 9 8 8 8 8 7 7 7 9 12 14 14 14 15 16 17 17 15 13 12 10 9 9 10 12 12 12 11 9 9 11 11 11 11 14 17 15 8 6 8 9 10 11 11 11 11 11 11 11 10 9 10 10 10 9 8 9 9 9 9 10 11 11 12 nan
nan 11 13 17 18 18 14 10 10 10 11 11 11 11 11 11 11 11 10 9 9 9 9 8 7 6 5 5 5 6 9 11 12 14 16 15 15 15 15 14 13 12 9 8 8 10 12 14 12 11 9 9 9 9 10 14 15 13 10 9 10 10 10 9 9 12 13 11 11 13 10 7 9 11 11 10 9 11 11 10 8 6 5 7 10 nan
nan 12 15 18 18 15 10 9 10 11 11 11 11 11 10 11 11 12 11 11 10 10 11 11 10 8 7 6 6 5 6 8 11 13 14 14 14 15 15 15 15 14 11 8 7 7 9 12 13 12 11 10 11 12 12 11 10 9 10 12 10 8 7 7 8 12 15 13 11 11 10 9 10 12 12 11 11 12 14 15 13 10 5 6 8 nan
nan 14 17 18 16 12 11 11 11 11 11 11 11 11 10 10 11 13 13 12 11 11 11 11 10 9 8 8 7 7 5 4 5 8 11 15 17 18 15 12 13 14 15 12 9 6 7 8 9 10 10 11 12 13 12 11 9 8 9 10 10 9 8 8 10 11 12 12 11 11 11 11 11 11 11 11 11 12 13 14 13 14 13 9 10 nan
nan 15 17 17 14 11 10 10 9 10 10 11 11 11 10 11 12 14 14 13 12 11 11 11 9 8 8 8 8 7 6 5 3 3 3 5 10 13 14 12 11 12 14 14 13 12 10 8 8 8 10 12 13 13 12 11 10 10 10 9 8 7 8 9 10 11 10 10 10 11 12 12 11 9 9 10 10 11 12 12 11 11 12 11 11 nan
nan 14 15 15 13 11 10 10 10 10 10 11 11 11 11 11 12 13 14 13 11 10 11 12 12 12 12 10 8 8 8 8 6 5 4 2 2 5 9 11 13 13 13 13 14 15 15 14 12 9 8 9 11 12 13 11 10 10 10 10 8 6 7 8 9 10 10 9 9 11 12 11 10 9 9 10 10 10 11 12 12 11 10 10 10 nan
nan 14 15 14 13 11 11 11 10 10 10 10 11 11 11 12 12 12 12 11 11 11 12 14 14 14 13 11 10 11 11 10 9 8 7 6 6 6 7 8 9 12 13 13 13 14 15 15 13 11 10 9 9 9 10 12 12 11 10 10 10 9 8 8 9 10 10 9 9 10 10 9 9 9 9 9 10 11 12 13 13 12 12 11 10 nan
nan 16 17 15 13 11 11 10 11 10 10 10 10 10 11 13 13 12 10 10 12 13 13 13 13 12 10 11 12 13 12 10 9 8 8 7 7 6 7 7 6 6 7 9 10 11 11 11 11 12 12 12 11 11 11 11 12 11 11 10 10 10 9 9 10 11 11 10 10 9 7 7 8 10 10 9 9 10 12 13 13 13 12 12 11 nan
nan 18 17 15 13 11 11 10 11 11 11 10 10 10 11 12 12 11 10 11 12 13 13 13 12 11 9 10 11 12 11 9 9 8 8 8 8 7 7 7 7 6 4 4 5 6 7 7 8 11 12 11 11 12 12 11 11 11 11 11 11 10 10 10 11 12 11 11 11 10 8 7 10 11 11 8 8 8 10 12 13 13 12 12 12 nan
nan 19 17 14 12 11 11 11 11 11 11 10 10 10 11 11 10 10 11 12 13 14 14 13 12 11 11 11 11 10 9 9 9 9 9 9 10 9 9 8 9 8 6 5 5 6 7 7 9 14 16 12 7 6 9 10 11 10 10 10 10 11 11 10 12 13 12 11 11 11 9 9 10 11 10 9 9 8 9 11 12 13 13 13 12 nan
nan nan nan nan nan nan nan nan nan nan nan nan nan nan nan nan nan nan nan nan nan nan nan nan nan nan nan nan nan nan nan nan nan nan nan nan nan nan nan nan nan nan nan nan nan nan nan nan nan nan nan nan nan nan nan nan nan nan nan nan nan nan nan nan nan nan nan nan nan nan nan nan nan nan nan nan nan nan nan nan nan nan nan nan nan nan
CAPE
5 8 6 24 24 28 21 0 1 1 0 nan nan nan nan nan nan nan nan nan nan nan nan nan nan nan nan nan nan nan nan nan 0 0 0 nan nan nan nan nan nan nan nan 0 0 2 6 8 8 7 6 3 nan nan nan nan nan nan nan nan nan nan nan nan nan nan nan nan nan nan 1 2 2 2 2 1 0 0 0 1 1 1 3 4 4 9
1 3 3 nan nan 1 7 nan 2 2 2 nan nan nan nan nan nan nan nan nan nan nan nan nan nan nan nan nan nan nan nan nan nan nan nan nan nan nan nan nan nan nan nan nan nan nan 1 5 5 5 5 0 nan nan nan nan nan nan nan nan nan nan nan nan nan nan nan nan 1 1 2 3 2 2 2 0 0 0 0 1 1 2 4 4 4 13
4 2 2 nan nan 1 6 nan nan nan 1 0 nan nan nan nan nan nan nan nan nan nan nan nan nan nan nan nan nan nan nan nan nan nan nan nan nan nan nan nan nan nan nan nan nan nan nan 0 0 2 4 nan nan nan nan nan nan nan nan nan nan nan nan nan nan nan nan nan 1 1 3 2 2 2 0 0 nan nan 0 0 0 1 4 6 6 15
15 19 8 2 2 nan 2 0 nan nan nan nan nan nan nan nan nan nan nan nan nan nan nan nan nan nan nan nan nan nan nan nan nan nan nan nan nan nan nan nan nan nan nan nan nan nan nan nan nan nan 0 nan nan nan nan nan nan nan nan nan nan nan nan nan nan nan nan nan 1 1 1 1 0 0 nan nan 0 0 0 1 1 1 3 6 6 17
27 56 23 8 8 6 1 1 nan nan nan nan nan nan nan nan nan nan nan nan nan nan nan nan nan nan nan nan nan nan nan nan nan nan nan nan nan nan nan nan nan nan nan nan nan nan nan nan nan nan nan nan nan nan nan nan nan nan nan nan nan nan nan nan nan nan nan nan 0 0 0 0 nan nan nan nan 0 0 0 1 1 1 2 8 8 17
15 25 28 29 29 16 8 1 0 0 nan nan nan nan nan nan nan nan nan nan nan nan nan nan nan nan nan nan nan nan nan nan nan nan nan nan nan nan nan nan nan nan nan nan nan nan nan nan nan nan nan nan nan nan nan nan nan nan nan nan nan nan nan nan nan nan nan nan nan nan nan nan nan nan nan nan 0 0 0 1 1 2 3 8 8 15
29 19 19 39 39 29 15 6 1 1 nan nan nan nan nan nan nan nan nan nan nan nan nan nan nan nan nan nan nan nan nan nan nan nan nan nan nan nan nan nan nan nan nan nan nan nan nan nan nan nan nan nan nan nan nan nan nan nan nan nan nan nan 0 nan nan nan nan nan nan nan nan nan nan nan nan nan 0 0 0 1 1 2 3 7 7 14
73 46 69 90 90 72 65 10 3 3 3 9 10 10 20 nan nan nan nan nan nan nan nan nan nan nan nan nan nan nan nan nan nan nan nan nan nan nan nan nan nan nan nan nan nan nan nan nan nan nan nan nan nan nan nan nan nan nan nan 0 0 1 2 2 2 1 1 1 1 1 0 0 nan nan nan nan 0 0 0 1 1 3 3 6 6 11
83 100 102 105 105 75 91 32 2 2 1 6 10 10 42 28 nan nan nan nan nan nan nan nan nan nan nan nan nan nan nan nan nan nan nan nan nan nan nan nan nan nan nan nan nan nan nan nan nan nan nan nan nan nan nan nan nan 0 0 1 1 1 2 4 4 5 4 4 3 3 2 0 nan nan nan nan nan nan 0 1 1 3 4 7 7 13
193 216 184 126 126 84 106 72 12 12 0 5 10 10 14 18 5 5 nan nan nan nan nan nan nan nan nan nan nan nan nan nan nan nan nan nan nan nan nan nan nan nan nan nan nan nan nan nan nan nan nan nan nan nan nan 0 0 0 1 1 1 2 3 6 6 8 8 6 6 6 4 2 1 1 0 nan 0 0 1 2 2 3 6 9 9 15
170 196 189 159 159 82 89 83 22 22 1 6 8 8 6 3 2 2 nan nan nan nan nan nan nan nan nan nan nan nan nan nan nan nan nan nan nan nan nan nan nan nan nan nan nan nan nan nan nan nan nan nan nan nan nan nan nan nan 0 1 1 3 4 8 8 11 10 10 10 10 6 4 2 2 1 1 1 1 1 2 2 3 7 10 10 13
137 159 188 175 175 131 107 51 1 1 nan 7 13 13 7 0 2 2 0 nan nan nan nan nan nan nan nan nan nan nan nan nan nan nan nan nan nan nan nan nan nan nan nan 0 0 nan nan nan nan nan nan nan nan nan nan nan nan nan 0 1 1 3 6 10 10 11 13 14 12 12 9 7 4 4 3 3 3 3 3 3 3 5 8 11 11 11
149 159 184 171 171 157 129 106 47 47 14 27 26 26 12 0 1 1 3 nan nan nan nan nan nan nan nan nan nan nan nan nan nan nan nan nan nan nan nan nan nan nan nan nan nan nan nan nan nan nan nan nan nan nan nan nan nan nan 0 2 2 5 8 10 10 11 13 15 15 15 12 9 8 8 8 6 5 5 4 4 4 6 10 11 11 11
139 175 172 154 154 168 119 110 104 104 63 45 22 22 6 nan 1 1 2 0 0 nan nan nan nan nan nan nan nan nan nan nan nan nan nan nan nan nan nan nan nan nan nan nan nan nan nan nan nan nan nan nan nan nan nan nan nan 0 1 4 4 7 9 10 10 12 14 16 15 15 14 13 13 13 12 9 7 7 5 6 6 8 10 10 10 10
103 118 95 74 74 94 89 63 50 50 44 29 15 15 11 2 1 1 1 1 1 nan nan nan nan nan nan nan nan nan nan nan nan nan nan nan nan nan nan nan nan nan nan nan nan nan nan nan nan nan nan nan nan nan nan nan nan 0 4 7 7 9 11 11 11 13 16 17 17 17 17 16 16 16 14 11 8 8 7 8 8 9 10 9 9 9
81 95 76 71 71 69 73 51 36 36 32 18 23 23 18 12 2 2 1 1 1 nan nan nan nan nan nan nan nan nan nan nan nan nan nan nan nan nan nan nan nan nan nan nan nan nan nan nan nan nan nan nan nan nan nan 2 2 3 7 10 10 12 11 13 13 15 18 20 21 21 21 19 17 17 14 10 8 8 8 9 9 10 10 8 8 9
85 79 70 65 65 59 66 77 83 83 77 72 76 76 48 33 7 7 3 0 0 nan nan nan nan nan nan nan nan nan nan nan nan nan nan nan nan nan nan nan nan nan nan nan nan nan nan nan nan nan nan nan nan nan 0 2 2 7 10 13 13 13 14 16 16 18 22 23 27 27 25 19 17 17 13 8 9 9 9 10 10 10 9 9 9 12
73 67 70 68 68 58 56 83 108 108 129 133 144 144 94 57 12 12 0 nan nan nan nan nan nan nan nan nan nan nan nan nan nan nan nan nan nan nan nan nan nan nan nan nan nan nan nan nan nan nan nan nan 0 0 2 4 4 9 13 15 15 15 16 18 18 22 25 30 31 31 24 19 15 15 11 8 8 8 10 10 10 9 9 10 10 14
58 59 69 82 82 85 78 85 107 107 138 142 132 132 85 44 9 9 1 nan nan nan nan nan nan nan nan nan nan nan nan nan nan nan nan nan nan nan nan nan nan nan nan nan nan nan nan nan nan nan nan 0 2 2 4 8 8 13 16 17 17 16 19 21 21 25 30 36 34 34 26 19 13 13 9 8 9 9 9 9 9 8 10 12 12 17
51 55 57 73 73 71 80 95 95 95 122 147 126 126 74 47 33 33 4 nan nan nan nan nan nan nan nan nan nan nan nan nan nan nan nan nan nan nan nan nan nan nan nan nan nan nan nan nan nan nan 1 0 4 4 8 11 11 16 16 16 16 18 19 24 24 29 33 37 32 32 24 18 11 11 9 9 8 8 9 8 8 9 11 16 16 19
56 56 59 72 72 58 73 53 70 70 88 118 76 76 47 59 58 58 27 nan nan nan nan nan nan nan nan nan nan nan nan nan nan nan nan nan nan nan nan nan nan nan nan nan nan nan nan nan nan nan 1 3 5 5 10 13 13 15 14 15 15 18 22 26 26 32 37 38 32 32 23 17 12 12 10 10 8 8 9 8 8 10 14 16 16 20
58 57 45 58 58 85 88 72 47 47 54 45 9 9 17 26 35 35 25 2 2 nan nan nan nan nan nan nan nan nan nan nan nan nan nan nan nan nan nan nan nan nan nan nan nan nan nan nan nan nan 0 9 8 8 13 14 14 13 14 14 14 17 22 30 30 36 40 35 30 30 21 17 14 14 11 9 9 9 9 11 11 13 14 18 18 20
40 40 36 42 42 62 111 139 134 134 114 35 4 4 10 10 6 6 14 1 1 nan nan nan nan nan nan nan nan nan nan nan nan nan nan nan nan nan nan nan nan nan nan nan nan nan nan nan nan nan 0 11 9 9 12 12 12 10 13 14 14 18 24 30 30 38 41 34 25 25 20 17 14 14 10 10 11 11 12 13 13 14 16 19 19 21
26 26 28 32 32 42 55 95 141 141 160 151 110 110 67 45 29 29 24 17 17 nan nan nan nan nan nan nan nan nan nan nan nan nan nan nan nan nan nan nan nan nan nan nan nan nan nan nan nan nan nan 8 9 9 10 10 10 10 13 15 15 20 27 34 34 38 37 30 21 21 18 15 13 13 10 10 12 12 13 14 14 16 17 19 19 20
16 22 29 27 27 32 37 38 44 44 53 87 93 93 110 91 78 78 83 7 7 nan nan nan nan nan nan nan nan nan nan nan nan nan nan nan nan nan nan nan nan nan nan nan nan nan nan nan nan nan nan nan 7 7 10 9 9 11 14 16 16 24 31 34 34 35 30 23 19 19 16 17 12 12 10 11 13 13 13 16 16 18 17 18 18 20
16 20 23 27 27 33 33 33 32 32 33 36 33 33 31 28 12 12 nan nan nan nan nan nan nan nan nan nan nan nan nan nan nan nan nan nan nan nan nan nan nan nan nan nan nan nan nan nan nan nan nan nan 8 8 8 10 10 12 16 21 21 25 31 31 31 28 22 18 16 16 15 13 11 11 11 12 13 13 14 15 15 17 16 17 17 17
28 33 37 35 35 32 29 29 31 31 28 25 22 22 17 13 2 2 nan nan nan nan nan nan nan nan nan nan nan nan nan nan nan nan nan nan nan nan nan nan nan nan nan nan nan nan nan nan nan nan nan nan 3 3 10 12 12 15 20 23 23 25 27 24 24 22 18 15 15 15 15 14 13 13 13 14 13 13 14 14 14 15 15 15 15 15
23 25 26 25 25 21 18 17 20 20 21 22 19 19 14 4 0 0 nan nan nan nan nan nan nan nan nan nan nan nan nan nan nan nan nan nan nan nan nan nan nan nan nan nan nan 0 2 nan nan nan nan nan nan nan 6 14 14 20 23 25 25 22 20 19 19 19 15 14 15 15 16 15 15 15 14 14 14 14 14 14 14 15 14 7 7 nan
11 13 14 13 13 12 10 13 17 17 18 20 18 18 11 2 1 1 nan nan nan nan nan nan nan nan nan nan nan nan nan nan nan nan nan nan nan nan nan nan nan nan nan nan nan nan nan nan nan nan nan nan nan nan 1 20 20 24 27 23 23 20 20 19 19 17 16 18 18 18 18 17 16 16 15 14 13 13 15 16 16 16 11 2 2 nan
8 8 8 7 7 8 9 11 15 15 18 18 14 14 12 5 5 5 2 nan nan nan nan nan nan nan nan nan nan nan nan nan nan nan nan nan nan nan nan nan nan nan nan nan nan nan nan nan nan nan nan 0 nan nan nan 3 3 20 17 27 27 22 22 22 22 20 20 21 20 20 18 17 17 17 15 15 13 13 14 15 15 12 2 nan nan nan
9 6 7 6 6 9 12 9 8 8 9 11 11 11 13 11 11 11 8 nan nan nan nan nan nan nan nan nan nan nan nan nan nan nan nan nan nan nan nan nan nan nan nan nan nan nan nan nan nan nan nan nan nan nan nan nan nan nan nan nan nan 6 26 21 21 19 19 19 19 19 17 17 18 18 15 14 14 14 15 15 15 10 0 nan nan nan
14 17 19 17 17 9 1 nan nan nan nan nan nan nan nan 0 1 1 1 0 0 nan nan nan nan nan nan nan nan nan nan nan nan nan nan nan nan nan nan nan nan nan nan nan nan nan nan nan nan nan nan nan nan nan nan nan nan nan nan nan nan nan nan nan nan 2 1 9 13 13 14 16 17 17 16 17 16 16 17 18 18 16 2 nan nan nan
21 23 20 14 14 3 nan nan nan nan nan nan nan nan nan nan 0 0 0 1 1 0 nan nan nan nan nan nan nan nan nan nan 2 2 nan nan nan nan nan nan nan nan nan nan nan nan nan nan nan nan nan nan nan nan nan nan nan nan nan nan nan nan nan nan nan nan nan nan nan nan 10 19 18 18 16 19 19 19 21 22 22 25 13 nan nan nan
25 25 18 9 9 0 nan nan nan nan nan nan nan nan nan nan 0 0 0 0 0 0 0 nan nan nan nan nan nan nan nan nan 5 5 0 nan nan nan nan nan nan nan nan nan nan nan nan nan nan nan nan nan nan nan nan nan nan nan nan nan nan nan nan nan nan nan nan nan nan nan nan nan nan nan 0 8 12 12 19 22 22 26 30 0 0 nan
24 20 11 3 3 nan nan nan nan nan nan nan nan nan 0 nan nan nan 0 0 0 nan nan 0 0 nan nan nan nan nan nan nan 4 4 0 nan nan nan nan nan nan nan nan nan nan nan nan nan nan nan nan nan nan nan nan nan nan nan nan nan nan nan nan nan nan nan nan nan nan nan nan nan nan nan nan nan 0 0 7 15 15 21 27 23 23 0
20 15 7 2 2 nan nan nan nan nan nan nan nan nan 0 0 nan nan nan nan nan nan nan nan nan nan nan nan nan nan nan nan 2 2 nan nan nan nan nan nan nan nan nan nan nan nan nan nan nan nan nan nan nan nan nan nan nan nan nan nan nan nan nan nan nan nan nan nan nan nan nan nan nan nan nan nan nan nan nan 5 5 10 15 17 17 12
17 13 8 2 2 nan nan nan nan nan nan nan nan nan nan nan nan nan nan nan nan nan nan nan nan nan nan nan nan nan nan nan nan nan nan nan nan nan nan nan nan nan nan nan nan nan nan nan nan nan nan nan nan nan nan nan nan nan nan nan nan nan nan nan nan nan nan nan nan nan nan nan nan nan nan nan nan nan nan nan nan 1 7 8 8 10
16 14 9 1 1 nan nan nan nan nan nan nan nan nan nan nan nan nan nan nan nan nan nan nan nan nan 0 nan nan nan nan nan nan nan nan nan nan nan nan nan nan nan nan nan nan nan nan nan nan nan nan nan nan nan nan nan nan nan nan nan nan nan nan nan nan nan nan nan nan nan nan nan nan nan nan nan nan nan nan nan nan nan nan nan nan 5
12 10 9 6 6 nan nan nan nan nan nan nan nan nan nan nan nan nan nan nan nan nan nan nan nan nan nan nan nan nan nan nan nan nan nan nan nan nan nan nan nan nan nan nan nan nan nan nan nan nan nan nan nan nan nan nan nan nan nan nan nan nan nan nan nan nan nan nan nan nan nan nan nan nan nan nan nan nan nan nan nan nan nan nan nan nan
10 9 8 7 7 nan nan nan nan nan nan nan nan nan nan nan nan nan nan nan nan nan nan nan nan nan nan 0 0 0 0 nan nan nan nan nan nan nan nan nan nan nan nan nan nan nan nan nan nan nan nan nan nan nan nan nan nan nan nan nan nan nan nan nan nan nan nan nan nan nan nan nan nan nan nan nan nan nan nan nan nan nan nan nan nan nan
10 9 8 nan nan nan nan nan nan nan nan nan nan nan nan nan nan nan nan nan nan nan nan nan nan nan nan nan nan nan nan nan nan nan nan nan nan nan nan nan nan nan nan nan nan nan nan nan nan nan nan nan nan nan nan nan nan nan nan nan nan nan nan nan nan nan nan nan nan nan nan nan nan nan nan nan nan nan nan nan nan nan nan nan nan nan
12 10 5 nan nan nan nan nan nan nan nan nan nan nan nan nan nan nan nan nan nan nan nan nan nan nan nan nan nan nan nan nan nan nan nan nan nan nan nan nan nan nan nan nan nan nan nan nan nan nan nan nan nan nan nan nan nan nan nan nan nan nan nan nan nan nan nan nan nan nan nan nan nan nan nan nan nan nan nan nan nan nan nan nan nan nan
6 5 nan nan nan nan nan 0 nan nan nan nan nan nan nan nan nan nan nan nan nan nan nan nan nan nan nan nan nan nan nan nan nan nan nan nan nan nan nan nan nan nan nan nan nan nan nan nan nan nan nan nan nan nan nan nan nan nan nan nan nan nan nan nan nan nan nan nan nan nan nan nan nan nan nan nan nan nan nan nan nan nan nan nan nan nan
4 0 nan nan nan nan nan nan nan nan nan nan nan nan nan nan nan nan nan nan nan nan nan nan nan nan nan nan nan nan nan nan nan nan nan nan nan nan nan nan nan nan nan nan nan nan nan nan nan nan nan nan nan nan nan nan nan nan nan nan nan nan nan nan nan nan nan nan nan nan nan nan nan nan nan nan nan nan nan nan nan nan nan nan nan nan
nan nan nan nan nan nan nan nan nan nan nan nan nan nan nan nan nan nan nan nan nan nan nan nan nan nan nan nan nan nan nan nan nan nan nan 1 0 0 nan nan nan nan nan nan nan nan nan nan nan nan nan nan nan nan nan nan nan nan nan nan nan nan nan nan nan nan nan nan nan nan nan nan nan nan nan nan nan nan nan nan nan nan nan nan nan nan
nan nan nan nan nan nan nan nan nan nan nan nan nan nan nan nan nan nan nan nan nan nan nan nan nan nan nan nan nan nan nan nan nan nan nan nan nan nan nan nan nan nan nan nan nan nan nan nan nan nan nan nan nan nan nan nan nan nan nan nan nan nan nan nan nan nan nan nan nan nan nan nan nan nan nan nan nan nan nan nan nan nan nan nan nan nan
nan nan nan nan nan nan nan nan nan nan nan nan nan nan nan nan nan nan nan nan nan nan nan nan nan nan nan nan nan nan nan nan nan nan nan nan nan nan nan nan nan nan nan nan nan nan nan nan nan nan nan nan nan nan nan nan nan nan nan nan nan nan nan nan nan nan nan nan nan nan nan nan nan nan nan nan nan nan nan nan nan nan nan nan nan nan
nan nan nan nan nan nan nan nan nan nan nan nan nan nan nan nan nan nan nan nan nan nan nan nan nan nan nan nan nan nan nan nan nan nan nan nan nan nan nan nan nan nan nan nan nan nan nan nan nan nan nan nan nan nan nan nan nan nan nan nan nan nan nan nan nan nan nan nan nan nan nan nan nan nan nan nan nan nan nan nan nan nan nan nan nan nan
nan nan nan nan nan nan nan nan nan nan nan nan nan nan nan nan 1 1 nan nan nan nan nan nan nan nan nan nan nan nan nan nan nan nan nan nan nan nan nan nan nan nan nan nan nan nan nan nan nan nan nan nan nan nan nan nan nan nan nan nan nan nan nan nan nan nan nan nan nan nan nan nan nan nan nan nan nan nan nan nan nan nan nan nan nan nan
nan nan nan nan nan nan nan nan nan nan nan nan nan nan nan nan nan nan nan nan nan nan nan nan nan nan nan nan nan nan nan nan nan nan nan nan nan nan nan nan nan nan nan nan nan nan nan nan nan nan nan nan nan nan nan nan nan nan nan nan nan nan nan nan nan nan nan nan nan nan nan nan nan nan nan nan nan nan nan nan nan nan nan nan nan nan
nan nan nan nan nan nan nan nan nan nan nan nan nan nan nan nan nan nan nan nan nan nan nan nan nan nan nan nan nan nan nan nan nan nan nan nan nan nan nan nan nan nan nan nan nan nan nan nan nan nan nan 1 nan nan nan nan nan nan nan nan nan nan nan nan nan nan nan nan nan nan nan nan nan nan nan nan nan nan nan nan nan nan nan nan nan nan